Volver al catálogo

GORIZONT 21

ActivoComunicacionesGEO
NORAD 20923·PAYLOAD·🇷🇺 Russia

Lanzado Nov 3, 1990 desde Baikonur Cosmodrome

Loading…

TLE

ActualizadoSource: Space-Track

Época: Sep 13, 2026, 17:38 UTC

1 20923U 90094A   26256.73488120 -.00000095  00000-0  00000-0 0  9997
2 20923  12.6533 336.1428 0007101 268.4193  88.5169  1.00149186131335

Sigue GORIZONT 21 en tiempo real con AllMySat

Download on the App Store